QPF
0.00 0.00 0.00 0.00 0.00 0.00 0.00 0.00 0.00 0.00 0.00 0.01 0.01 0.01 0.01 0.01 0.00 0.00 0.00 0.00 0.00 0.00 0.00 0.00 0.00 0.00 0.00 0.00 0.00 0.00 0.00 0.00 0.00 0.00 0.00 0.00 0.00 0.00 0.00 0.00 0.00 0.00 0.00 0.00 0.00
0.00 0.00 0.00 0.00 0.00 0.00 0.00 0.00 0.00 0.00 0.00 0.00 0.01 0.01 0.01 0.01 0.00 0.00 0.00 0.00 0.00 0.00 0.00 0.00 0.00 0.00 0.00 0.00 0.00 0.00 0.00 0.00 0.00 0.00 0.00 0.00 0.00 0.00 0.00 0.00 0.00 0.02 0.07 0.00 0.00
0.00 0.00 0.00 0.00 0.00 0.00 0.00 0.00 0.00 0.00 0.00 0.01 0.01 0.01 0.01 0.00 0.00 0.00 0.00 0.00 0.00 0.00 0.00 0.00 0.00 0.00 0.00 0.00 0.00 0.00 0.00 0.00 0.00 0.00 0.00 0.00 0.00 0.00 0.00 0.00 0.00 0.00 0.08 0.07 0.02
0.00 0.00 0.00 0.00 0.00 0.00 0.00 0.00 0.00 0.00 0.01 0.01 0.01 0.01 0.01 0.00 0.00 0.00 0.00 0.00 0.00 0.00 0.00 0.00 0.00 0.00 0.00 0.00 0.00 0.00 0.00 0.00 0.00 0.00 0.00 0.00 0.00 0.00 0.00 0.00 0.00 0.00 0.00 0.25 0.18
0.00 0.00 0.01 0.00 0.00 0.00 0.00 0.00 0.00 0.00 0.00 0.00 0.00 0.01 0.02 0.01 0.00 0.00 0.00 0.00 0.00 0.00 0.00 0.00 0.00 0.00 0.00 0.00 0.00 0.00 0.00 0.00 0.00 0.00 0.00 0.00 0.00 0.00 0.00 0.00 0.00 0.00 0.00 0.04 0.48
0.00 0.01 0.01 0.00 0.00 0.00 0.00 0.00 0.00 0.00 0.00 0.00 0.01 0.02 0.02 0.01 0.00 0.00 0.00 0.00 0.00 0.00 0.00 0.00 0.00 0.00 0.00 0.00 0.00 0.00 0.00 0.00 0.00 0.00 0.00 0.00 0.00 0.00 0.00 0.00 0.00 0.00 0.00 0.00 0.06
0.00 0.00 0.01 0.01 0.01 0.01 0.01 0.00 0.00 0.00 0.00 0.00 0.01 0.02 0.03 0.00 0.00 0.00 0.00 0.00 0.00 0.00 0.00 0.00 0.00 0.00 0.00 0.00 0.00 0.00 0.00 0.00 0.00 0.00 0.00 0.00 0.00 0.00 0.00 0.00 0.00 0.00 0.00 0.00 0.00
0.00 0.00 0.00 0.01 0.01 0.01 0.01 0.01 0.00 0.00 0.00 0.00 0.01 0.03 0.02 0.00 0.00 0.00 0.00 0.00 0.00 0.00 0.00 0.00 0.00 0.00 0.00 0.00 0.00 0.00 0.00 0.00 0.00 0.00 0.00 0.00 0.00 0.00 0.00 0.00 0.00 0.00 0.00 0.00 0.00
0.00 0.00 0.00 0.00 0.00 0.01 0.01 0.00 0.00 0.00 0.00 0.00 0.01 0.02 0.00 0.00 0.00 0.00 0.00 0.00 0.00 0.00 0.00 0.00 0.00 0.00 0.00 0.00 0.00 0.00 0.00 0.00 0.00 0.00 0.00 0.00 0.00 0.00 0.00 0.00 0.00 0.00 0.00 0.00 0.00
0.00 0.00 0.00 0.00 0.00 0.00 0.00 0.00 0.00 0.00 0.00 0.00 0.01 0.02 0.00 0.00 0.00 0.00 0.00 0.00 0.00 0.00 0.00 0.00 0.00 0.00 0.00 0.00 0.00 0.00 0.00 0.00 0.00 0.00 0.00 0.00 0.00 0.00 0.00 0.00 0.00 0.00 0.00 0.00 0.00
0.00 0.00 0.00 0.00 0.00 0.00 0.00 0.00 0.00 0.00 0.00 0.00 0.00 0.00 0.00 0.00 0.00 0.00 0.00 0.00 0.00 0.00 0.00 0.00 0.00 0.00 0.00 0.00 0.00 0.00 0.00 0.00 0.00 0.00 0.00 0.00 0.00 0.00 0.00 0.00 0.00 0.00 0.00 0.00 0.00
0.00 0.00 0.00 0.00 0.00 0.00 0.00 0.00 0.00 0.00 0.01 0.00 0.00 0.00 0.00 0.00 0.00 0.00 0.00 0.00 0.00 0.00 0.00 0.00 0.00 0.00 0.00 0.00 0.00 0.00 0.00 0.00 0.00 0.00 0.00 0.00 0.00 0.00 0.00 0.00 0.00 0.00 0.00 0.00 0.00
0.00 0.00 0.00 0.00 0.00 0.00 0.00 0.00 0.00 0.02 0.03 0.00 0.00 0.00 0.00 0.00 0.00 0.00 0.00 0.00 0.00 0.00 0.00 0.00 0.00 0.00 0.00 0.00 0.00 0.00 0.00 0.00 0.00 0.00 0.00 0.00 0.00 0.00 0.00 0.00 0.00 0.00 0.00 0.00 0.00
0.00 0.00 0.00 0.00 0.00 0.00 0.00 0.00 0.00 0.02 0.04 0.00 0.00 0.00 0.00 0.00 0.00 0.00 0.00 0.00 0.00 0.00 0.00 0.00 0.00 0.00 0.00 0.00 0.00 0.00 0.00 0.00 0.00 0.00 0.01 0.03 0.01 0.00 0.00 0.00 0.00 0.00 0.00 0.00 0.00
0.00 0.00 0.01 0.02 0.01 0.00 0.00 0.00 0.00 0.02 0.04 0.00 0.05 0.08 0.04 0.00 0.00 0.00 0.00 0.00 0.00 0.00 0.00 0.00 0.00 0.00 0.00 0.00 0.00 0.00 0.00 0.00 0.00 0.00 0.00 0.01 0.06 0.01 0.00 0.00 0.00 0.00 0.00 0.00 0.00
0.00 0.00 0.01 0.01 0.00 0.00 0.00 0.00 0.00 0.03 0.01 0.00 0.01 0.14 0.09 0.01 0.00 0.01 0.02 0.01 0.00 0.00 0.00 0.00 0.00 0.00 0.00 0.00 0.00 0.00 0.00 0.00 0.00 0.00 0.01 0.00 0.01 0.00 0.00 0.00 0.00 0.00 0.00 0.00 0.00
0.00 0.00 0.00 0.00 0.01 0.00 0.00 0.00 0.03 0.01 0.00 0.02 0.06 0.10 0.13 0.02 0.00 0.02 0.02 0.02 0.01 0.00 0.00 0.00 0.00 0.00 0.00 0.00 0.00 0.00 0.00 0.00 0.00 0.00 0.00 0.00 0.00 0.00 0.00 0.00 0.00 0.00 0.00 0.00 0.00
0.00 0.00 0.00 0.00 0.02 0.01 0.00 0.01 0.03 0.00 0.00 0.00 0.01 0.07 0.16 0.02 0.00 0.01 0.03 0.00 0.00 0.00 0.00 0.00 0.00 0.00 0.00 0.00 0.00 0.00 0.00 0.00 0.00 0.00 0.00 0.00 0.00 0.00 0.00 0.00 0.00 0.00 0.00 0.00 0.00
0.00 0.00 0.00 0.01 0.01 0.01 0.05 0.09 0.01 0.00 0.00 0.00 0.01 0.07 0.14 0.05 0.00 0.02 0.03 0.00 0.00 0.00 0.00 0.00 0.00 0.00 0.00 0.00 0.00 0.00 0.00 0.00 0.00 0.00 0.00 0.00 0.00 0.00 0.00 0.00 0.00 0.00 0.00 0.00 0.00
0.00 0.00 0.00 0.00 0.02 0.05 0.12 0.07 0.01 0.00 0.00 0.00 0.07 0.08 0.11 0.05 0.00 0.00 0.03 0.01 0.00 0.00 0.00 0.00 0.00 0.00 0.00 0.00 0.00 0.00 0.00 0.00 0.00 0.00 0.00 0.00 0.00 0.00 0.00 0.00 0.00 0.00 0.00 0.00 0.00
0.00 0.00 0.00 0.00 0.01 0.15 0.15 0.05 0.01 0.00 0.00 0.02 0.08 0.09 0.10 0.05 0.00 0.00 0.01 0.01 0.00 0.00 0.00 0.00 0.00 0.00 0.00 0.00 0.00 0.00 0.00 0.00 0.00 0.00 0.00 0.01 0.01 0.00 0.00 0.00 0.00 0.00 0.00 0.00 0.00
0.00 0.00 0.00 0.00 0.02 0.11 0.12 0.06 0.05 0.02 0.00 0.00 0.03 0.06 0.07 0.05 0.00 0.00 0.00 0.00 0.00 0.00 0.00 0.00 0.00 0.00 0.00 0.00 0.00 0.00 0.00 0.00 0.00 0.00 0.01 0.03 0.10 0.01 0.00 0.00 0.00 0.00 0.00 0.00 0.00
0.00 0.00 0.00 0.00 0.09 0.04 0.01 0.01 0.02 0.02 0.13 0.08 0.03 0.08 0.08 0.08 0.01 0.01 0.01 0.01 0.00 0.00 0.00 0.00 0.00 0.00 0.00 0.00 0.00 0.00 0.00 0.00 0.00 0.00 0.01 0.05 0.14 0.05 0.01 0.00 0.00 0.00 0.00 0.00 0.00
0.00 0.00 0.00 0.00 0.02 0.09 0.11 0.01 0.00 0.01 0.12 0.12 0.04 0.12 0.23 0.13 0.01 0.03 0.04 0.01 0.00 0.00 0.00 0.00 0.00 0.00 0.00 0.00 0.00 0.00 0.00 0.00 0.00 0.00 0.01 0.01 0.10 0.28 0.05 0.02 0.01 0.00 0.00 0.00 0.00
0.00 0.00 0.00 0.00 0.01 0.04 0.09 0.02 0.00 0.00 0.04 0.04 0.07 0.09 0.14 0.08 0.00 0.02 0.02 0.02 0.01 0.00 0.00 0.00 0.00 0.00 0.00 0.00 0.00 0.00 0.00 0.00 0.00 0.00 0.01 0.03 0.08 0.27 0.15 0.02 0.00 0.00 0.00 0.00 0.00
0.00 0.01 0.00 0.00 0.00 0.01 0.08 0.08 0.02 0.01 0.03 0.01 0.02 0.01 0.00 0.01 0.01 0.01 0.02 0.01 0.00 0.00 0.00 0.00 0.00 0.02 0.02 0.00 0.00 0.00 0.00 0.00 0.00 0.00 0.01 0.04 0.17 0.11 0.12 0.03 0.01 0.01 0.00 0.00 0.00
0.00 0.00 0.01 0.00 0.00 0.06 0.18 0.15 0.04 0.01 0.03 0.03 0.03 0.03 0.00 0.00 0.00 0.02 0.03 0.00 0.00 0.00 0.00 0.00 0.00 0.03 0.02 0.00 0.00 0.00 0.00 0.01 0.00 0.00 0.01 0.02 0.09 0.06 0.16 0.10 0.06 0.03 0.02 0.00 0.00
MSLP
1018.79 1018.45 1018.11 1017.80 1017.41 1016.97 1016.65 1016.43 1016.22 1015.99 1015.76 1015.57 1015.32 1015.10 1014.87 1014.67 1014.32 1014.14 1012.99 1011.19 1010.93 1010.36 1010.39 1010.35 1010.10 1010.30 1010.54 1010.59 1010.35 1010.38 1011.13 1010.52 1009.60 1008.78 1007.88 1006.62 1006.34 1005.29 1004.32 1004.13 1004.87 1004.98 1003.98 1004.33 1003.20
1018.58 1018.24 1017.93 1017.62 1017.23 1016.93 1016.58 1016.24 1015.89 1015.64 1015.45 1015.21 1015.02 1014.78 1014.62 1014.47 1014.29 1012.94 1009.91 1009.27 1009.48 1010.17 1010.49 1010.44 1010.19 1010.32 1010.76 1010.45 1010.34 1010.22 1010.10 1009.32 1008.63 1008.23 1007.73 1006.87 1006.38 1005.83 1004.88 1004.25 1004.62 1004.83 1004.34 1004.99 1004.99
1018.39 1018.06 1017.75 1017.40 1017.09 1016.77 1016.46 1016.11 1015.73 1015.33 1014.95 1014.89 1014.75 1014.62 1014.47 1014.23 1013.51 1009.94 1007.65 1007.78 1008.83 1009.83 1010.33 1010.27 1010.28 1010.42 1010.81 1010.41 1009.98 1009.55 1008.96 1008.64 1008.06 1007.91 1007.45 1006.90 1006.42 1005.83 1005.43 1005.21 1005.32 1005.58 1005.47 1006.17 1007.38
1018.08 1017.76 1017.44 1017.09 1016.73 1016.45 1016.12 1015.79 1015.44 1015.13 1014.80 1014.47 1014.41 1014.37 1014.35 1014.23 1012.18 1007.57 1006.98 1007.14 1007.44 1009.21 1010.10 1010.15 1010.32 1010.66 1010.58 1010.33 1009.73 1009.54 1008.48 1008.47 1008.17 1007.60 1007.24 1006.82 1006.55 1006.03 1006.09 1006.27 1006.23 1005.76 1006.22 1006.90 1008.24
1017.75 1017.37 1016.96 1016.65 1016.39 1016.02 1015.62 1015.35 1015.10 1014.78 1014.48 1014.20 1013.93 1013.98 1014.13 1013.31 1010.84 1007.68 1007.56 1008.23 1008.08 1009.01 1009.57 1009.83 1010.02 1010.37 1010.25 1009.94 1009.85 1009.06 1008.63 1008.32 1008.08 1007.62 1006.87 1006.91 1006.76 1006.40 1005.95 1006.17 1006.81 1006.82 1006.53 1007.57 1008.69
1017.69 1017.26 1016.84 1016.36 1015.95 1015.48 1015.17 1014.98 1014.57 1014.24 1014.06 1013.87 1013.62 1013.51 1013.49 1011.45 1009.33 1008.70 1008.62 1008.80 1008.53 1008.90 1009.11 1009.52 1009.36 1009.41 1009.71 1009.49 1009.12 1008.19 1008.59 1008.38 1007.92 1007.43 1006.86 1006.94 1006.80 1006.42 1005.91 1005.67 1006.25 1007.27 1007.41 1007.70 1008.02
1017.57 1017.08 1016.58 1016.09 1015.50 1014.97 1014.58 1014.25 1014.06 1013.74 1013.54 1013.36 1013.12 1012.93 1011.70 1009.62 1008.77 1008.43 1008.79 1009.11 1009.16 1008.79 1008.50 1008.54 1008.55 1009.02 1009.18 1008.96 1008.43 1008.42 1008.61 1008.31 1007.45 1007.23 1007.02 1006.77 1006.71 1006.27 1006.09 1005.78 1005.98 1006.93 1007.67 1008.05 1008.68
1017.27 1016.77 1016.26 1015.69 1015.17 1014.66 1014.09 1013.63 1013.23 1012.85 1012.74 1012.58 1012.51 1012.31 1009.58 1008.68 1008.14 1008.31 1007.20 1008.42 1008.61 1008.76 1008.60 1008.01 1008.28 1009.05 1008.99 1008.55 1007.91 1008.26 1008.47 1007.92 1007.08 1007.12 1006.75 1007.05 1005.79 1006.20 1006.17 1006.24 1005.92 1006.63 1007.73 1008.05 1008.46
1016.81 1016.29 1015.80 1015.28 1014.72 1014.26 1013.73 1013.16 1012.33 1011.85 1011.67 1011.72 1011.82 1011.81 1008.77 1007.02 1006.59 1005.59 1006.96 1007.78 1007.29 1007.62 1007.83 1007.88 1008.45 1008.78 1008.69 1008.88 1008.91 1007.95 1007.51 1007.53 1007.20 1006.50 1006.87 1006.87 1006.24 1006.11 1006.12 1006.54 1006.36 1006.27 1006.95 1007.78 1007.82
1016.59 1016.02 1015.46 1014.91 1014.34 1013.84 1013.18 1012.48 1011.02 1010.42 1010.38 1010.71 1010.91 1011.19 1008.07 1005.37 1004.79 1004.38 1005.08 1006.30 1006.92 1006.71 1007.19 1007.72 1007.84 1008.04 1008.32 1008.35 1007.80 1007.84 1007.67 1007.30 1007.11 1006.58 1006.84 1006.99 1006.76 1006.43 1006.22 1006.40 1006.70 1006.18 1006.34 1006.74 1007.08
1016.18 1015.63 1015.03 1014.38 1013.84 1013.30 1012.87 1012.45 1010.90 1010.26 1009.93 1009.09 1008.55 1007.58 1005.21 1004.42 1004.16 1003.64 1004.10 1005.32 1006.37 1005.86 1006.00 1006.72 1006.99 1006.22 1006.92 1007.37 1007.38 1007.17 1007.17 1007.15 1006.85 1006.58 1006.85 1006.97 1007.00 1006.91 1006.62 1006.50 1006.47 1006.15 1006.05 1006.24 1006.64
1015.75 1015.12 1014.42 1013.70 1013.15 1012.64 1012.54 1012.47 1010.89 1010.06 1009.09 1007.73 1006.76 1006.12 1005.00 1004.99 1004.32 1003.25 1003.72 1003.98 1004.66 1004.34 1005.13 1005.82 1004.60 1005.81 1006.48 1006.85 1007.00 1006.73 1006.76 1006.64 1006.52 1006.33 1006.69 1007.05 1007.09 1006.96 1006.67 1006.50 1006.30 1006.19 1005.96 1005.92 1006.11
1015.21 1014.52 1013.83 1013.11 1012.44 1011.96 1011.66 1011.10 1010.21 1010.29 1009.25 1005.41 1004.56 1003.57 1003.33 1004.48 1003.56 1002.56 1003.08 1002.08 1002.38 1003.17 1003.01 1003.12 1003.91 1004.98 1005.27 1005.72 1005.94 1005.70 1005.77 1006.34 1006.60 1006.58 1006.80 1007.22 1007.29 1007.29 1006.71 1006.30 1005.77 1005.72 1005.46 1005.43 1005.69
1014.59 1013.87 1013.25 1012.63 1012.30 1011.81 1011.17 1010.23 1010.28 1010.54 1008.79 1004.45 1003.05 1002.59 1003.21 1003.76 1002.06 1001.10 1001.72 1001.71 1001.29 1001.57 1002.52 1002.73 1002.93 1003.29 1003.96 1004.00 1004.71 1004.65 1005.12 1005.92 1006.55 1007.07 1007.88 1007.91 1007.76 1007.28 1006.94 1006.03 1005.29 1004.81 1004.86 1004.77 1005.12
1013.88 1013.09 1012.55 1012.25 1011.77 1011.32 1010.10 1010.03 1010.07 1009.90 1007.96 1002.93 1003.43 1004.02 1003.32 1002.58 1000.13 999.12 999.98 1000.96 999.69 999.96 1001.25 1001.04 1001.62 1002.39 1002.52 1002.63 1003.75 1003.92 1004.75 1005.75 1006.56 1007.43 1008.08 1008.37 1008.62 1006.13 1006.78 1005.46 1003.79 1003.57 1003.74 1004.12 1004.42
1012.99 1011.92 1011.56 1011.11 1011.06 1010.02 1009.75 1010.03 1009.75 1009.33 1006.19 1003.15 1002.99 1002.47 1002.31 1001.78 1000.70 999.18 999.24 1000.25 999.74 1000.02 1000.68 1000.91 1000.79 1001.36 1001.58 1002.45 1002.92 1003.88 1004.75 1005.91 1006.61 1007.30 1007.39 1007.53 1007.77 1004.64 1004.89 1003.18 1002.81 1002.61 1002.71 1002.77 1003.76
1012.24 1011.09 1010.47 1010.48 1009.96 1009.21 1009.51 1009.88 1009.77 1007.70 1004.48 1002.93 1002.38 1002.17 1002.27 1000.90 1000.26 1000.01 999.14 999.91 999.34 999.72 1000.06 1000.61 1000.23 1000.53 1000.80 1001.81 1002.53 1003.45 1004.83 1006.71 1007.56 1007.55 1006.23 1007.36 1007.28 1003.91 1002.73 1002.05 1001.65 1001.51 1002.02 1002.43 1003.47
1011.68 1010.16 1009.45 1009.21 1009.05 1009.21 1009.40 1010.07 1008.67 1005.40 1004.04 1002.68 1002.32 1002.06 1002.07 1000.95 999.99 999.96 999.02 999.44 999.27 998.74 999.71 999.81 1000.07 999.44 999.67 1000.24 1001.37 1002.54 1003.98 1005.45 1006.68 1007.03 1006.86 1007.03 1004.58 1002.56 1001.48 1000.57 1000.68 1000.58 1001.33 1002.44 1003.30
1010.98 1009.97 1009.49 1008.52 1007.88 1008.79 1009.57 1009.07 1007.34 1005.13 1003.71 1002.68 1002.74 1002.64 1002.18 1001.13 1000.65 999.89 999.20 998.26 998.18 998.16 998.46 998.99 999.19 998.98 999.08 999.56 1000.71 1002.02 1003.63 1004.77 1006.24 1007.09 1007.39 1006.00 1003.93 1001.69 1000.73 1000.03 1000.01 1000.60 1001.60 1002.70 1003.46
1011.45 1010.65 1009.04 1008.22 1008.16 1008.73 1009.21 1007.98 1006.63 1005.55 1004.30 1003.47 1003.05 1003.22 1003.04 1002.13 1001.02 999.27 999.16 997.90 997.69 997.77 997.72 998.05 999.07 998.53 998.70 999.60 999.96 1000.70 1002.58 1004.66 1006.47 1007.56 1007.25 1005.95 1004.90 1003.25 1001.69 1000.29 1000.27 1001.22 1001.83 1002.95 1003.91
1011.71 1010.67 1008.55 1008.39 1008.65 1009.03 1008.74 1007.63 1006.06 1004.93 1004.35 1003.52 1003.09 1003.40 1003.49 1003.00 1001.81 1000.01 998.41 997.04 996.86 997.01 997.34 998.14 998.51 998.55 998.65 998.85 999.48 1000.40 1001.92 1004.07 1005.74 1006.79 1007.08 1007.25 1005.58 1003.80 1003.24 1002.18 1000.63 1001.72 1002.02 1003.32 1004.15
1012.15 1010.97 1008.84 1008.62 1009.07 1009.27 1008.72 1007.45 1006.30 1004.46 1003.45 1002.65 1002.58 1003.15 1003.44 1003.14 1002.08 1000.37 998.40 996.85 996.02 996.32 997.62 998.30 999.14 999.00 998.56 998.39 998.79 999.71 1001.29 1003.01 1004.93 1006.69 1007.12 1007.30 1006.04 1004.39 1003.57 1001.81 1000.92 1001.86 1002.45 1003.61 1004.62
1012.48 1011.20 1009.00 1008.88 1009.42 1008.95 1008.16 1007.12 1005.92 1004.35 1003.22 1002.55 1002.10 1002.93 1003.13 1003.15 1002.25 1000.41 998.34 996.76 996.42 996.71 997.71 998.63 999.72 1000.22 999.29 999.17 999.06 999.52 1000.51 1001.73 1003.24 1005.01 1005.99 1006.54 1007.00 1005.75 1005.55 1003.84 1002.52 1002.33 1003.37 1004.37 1005.17
1012.90 1011.86 1010.47 1009.88 1009.84 1009.67 1008.53 1007.20 1005.82 1004.23 1002.70 1001.90 1001.98 1002.36 1002.76 1002.67 1002.12 1000.67 998.80 997.69 997.23 997.09 997.86 998.56 1000.02 1000.38 1000.41 999.75 999.75 999.69 1000.17 1000.97 1002.20 1003.96 1005.19 1005.72 1006.97 1008.15 1007.57 1004.99 1004.07 1003.71 1004.35 1004.97 1005.60
1013.50 1013.01 1012.31 1011.09 1009.74 1009.58 1008.95 1008.06 1006.70 1005.11 1003.69 1002.52 1001.94 1002.27 1002.17 1001.94 1001.65 1001.07 999.81 999.20 997.65 997.75 998.68 999.25 1000.65 1000.53 1000.82 1000.40 1000.04 1000.20 1000.06 1000.45 1001.60 1002.76 1004.15 1005.80 1006.65 1007.05 1007.51 1006.01 1005.33 1005.00 1005.27 1005.80 1006.54
1014.43 1013.96 1012.68 1011.62 1010.50 1009.56 1008.85 1007.95 1007.07 1005.67 1004.53 1003.17 1002.63 1002.42 1002.29 1002.29 1002.28 1002.23 1001.72 1001.56 999.75 998.85 999.31 1000.13 1001.65 1001.77 1002.43 1001.77 1001.04 1001.48 1001.53 1001.18 1001.20 1002.35 1003.78 1005.01 1006.37 1006.99 1007.20 1006.98 1006.87 1006.30 1006.64 1007.23 1007.65
1014.80 1014.00 1013.25 1011.71 1010.94 1010.13 1009.35 1008.32 1007.28 1006.16 1004.30 1003.71 1003.27 1002.71 1002.50 1002.50 1002.49 1002.62 1002.77 1002.27 1001.39 1000.86 1000.33 1001.33 1002.51 1003.65 1004.50 1003.31 1002.30 1002.78 1003.11 1002.73 1002.22 1002.65 1003.02 1004.69 1005.75 1006.81 1007.89 1007.97 1008.45 1008.26 1008.25 1008.60 1008.58
Thickness
5651 5649 5648 5646 5646 5646 5645 5644 5644 5643 5643 5643 5644 5645 5647 5649 5653 5656 5667 5680 5682 5690 5693 5696 5701 5700 5702 5703 5711 5713 5685 5694 5712 5731 5748 5771 5767 5790 5806 5801 5801 5801 5816 5822 5844
5643 5641 5639 5637 5636 5635 5635 5635 5636 5636 5636 5637 5637 5637 5639 5641 5644 5657 5681 5687 5687 5683 5683 5683 5687 5688 5683 5692 5696 5692 5687 5707 5731 5740 5745 5758 5761 5767 5782 5794 5793 5795 5816 5817 5822
5634 5632 5629 5628 5626 5625 5625 5625 5626 5627 5628 5627 5628 5629 5630 5632 5638 5668 5689 5690 5683 5676 5674 5677 5678 5680 5673 5684 5688 5693 5696 5716 5729 5733 5744 5750 5755 5769 5773 5776 5783 5778 5794 5799 5789
5627 5624 5621 5618 5618 5616 5615 5614 5614 5615 5616 5616 5617 5618 5619 5622 5633 5676 5683 5685 5683 5672 5667 5667 5665 5663 5665 5669 5684 5678 5706 5708 5718 5726 5732 5739 5748 5755 5762 5765 5780 5783 5790 5781 5770
5617 5614 5611 5609 5605 5604 5604 5603 5602 5601 5603 5604 5605 5605 5608 5615 5636 5664 5667 5664 5666 5661 5657 5657 5655 5654 5655 5665 5672 5675 5691 5700 5708 5715 5726 5734 5733 5743 5757 5771 5775 5772 5778 5769 5757
5605 5602 5598 5596 5594 5592 5590 5588 5587 5587 5587 5588 5589 5590 5593 5611 5636 5639 5643 5645 5649 5649 5650 5648 5652 5654 5653 5658 5668 5684 5684 5686 5696 5707 5717 5717 5724 5739 5754 5768 5769 5763 5758 5758 5766
5592 5587 5583 5579 5578 5576 5574 5573 5570 5569 5569 5569 5571 5574 5587 5612 5624 5625 5626 5627 5631 5640 5645 5650 5652 5649 5651 5658 5669 5672 5665 5670 5689 5699 5702 5712 5707 5722 5746 5759 5760 5756 5750 5744 5752
5578 5573 5568 5564 5560 5556 5553 5551 5549 5549 5549 5550 5552 5555 5580 5605 5607 5611 5622 5617 5623 5625 5632 5642 5644 5637 5642 5652 5662 5656 5657 5653 5685 5689 5698 5693 5699 5721 5736 5739 5751 5751 5744 5742 5739
5565 5558 5551 5544 5538 5531 5527 5525 5525 5524 5527 5526 5527 5527 5563 5592 5600 5612 5607 5604 5615 5619 5622 5629 5626 5626 5635 5628 5626 5642 5647 5646 5665 5687 5686 5680 5693 5715 5725 5726 5735 5744 5743 5742 5743
5549 5539 5530 5520 5511 5502 5498 5498 5501 5499 5502 5502 5504 5504 5552 5576 5588 5603 5604 5601 5601 5612 5607 5609 5611 5610 5614 5612 5615 5628 5635 5649 5650 5675 5671 5669 5678 5701 5713 5716 5717 5735 5741 5746 5746
5530 5516 5506 5494 5484 5475 5473 5469 5469 5476 5479 5488 5494 5508 5547 5556 5571 5584 5595 5589 5587 5600 5597 5603 5601 5612 5618 5621 5635 5648 5644 5645 5655 5667 5662 5662 5667 5680 5697 5700 5706 5723 5731 5737 5743
5508 5495 5483 5474 5468 5461 5453 5445 5454 5461 5464 5483 5491 5497 5521 5522 5540 5565 5581 5581 5583 5595 5601 5594 5609 5616 5621 5622 5628 5636 5637 5641 5654 5659 5657 5654 5654 5665 5679 5687 5697 5707 5719 5726 5738
5490 5476 5466 5460 5456 5449 5443 5443 5448 5443 5445 5494 5495 5503 5510 5502 5529 5550 5568 5589 5593 5593 5605 5609 5616 5621 5622 5621 5624 5635 5637 5635 5637 5646 5650 5644 5634 5644 5664 5676 5690 5698 5714 5721 5731
5476 5464 5455 5447 5441 5436 5434 5439 5436 5434 5441 5486 5498 5502 5496 5494 5526 5555 5568 5580 5591 5594 5600 5607 5619 5623 5622 5627 5631 5628 5646 5641 5636 5624 5607 5627 5608 5632 5644 5658 5675 5691 5703 5718 5725
5469 5460 5450 5442 5441 5434 5438 5433 5432 5434 5436 5505 5489 5482 5491 5504 5550 5565 5575 5572 5596 5605 5601 5608 5615 5614 5618 5632 5634 5637 5645 5637 5634 5619 5610 5608 5590 5631 5636 5645 5678 5693 5701 5710 5720
5469 5466 5460 5454 5443 5442 5437 5430 5433 5435 5445 5494 5490 5491 5491 5501 5520 5554 5568 5576 5598 5601 5603 5609 5629 5626 5631 5636 5642 5646 5637 5631 5631 5620 5593 5619 5608 5638 5640 5667 5681 5689 5702 5716 5720
5471 5473 5470 5461 5455 5450 5440 5433 5436 5423 5487 5496 5493 5499 5490 5504 5524 5538 5562 5558 5571 5571 5582 5600 5616 5627 5635 5624 5631 5632 5613 5584 5581 5584 5610 5623 5610 5642 5665 5682 5692 5698 5703 5709 5709
5477 5481 5479 5472 5465 5456 5446 5430 5439 5487 5490 5503 5504 5501 5488 5506 5533 5541 5563 5561 5579 5594 5589 5589 5585 5620 5637 5629 5624 5626 5618 5583 5582 5589 5619 5630 5627 5654 5683 5697 5699 5707 5702 5696 5699
5483 5484 5480 5480 5475 5460 5448 5447 5452 5490 5500 5506 5499 5491 5501 5522 5526 5549 5560 5578 5590 5599 5595 5595 5600 5633 5638 5648 5640 5624 5605 5624 5611 5620 5611 5620 5641 5677 5691 5698 5703 5694 5692 5689 5688
5481 5478 5484 5484 5475 5462 5450 5462 5468 5484 5497 5502 5496 5495 5499 5511 5523 5557 5560 5581 5590 5606 5616 5615 5598 5631 5642 5643 5647 5634 5638 5608 5590 5585 5600 5621 5627 5640 5661 5690 5694 5685 5686 5683 5685
5477 5478 5491 5484 5473 5463 5466 5472 5484 5494 5499 5505 5504 5496 5498 5505 5519 5545 5574 5595 5604 5611 5620 5618 5611 5625 5638 5626 5628 5627 5624 5609 5607 5602 5590 5585 5611 5648 5650 5667 5690 5680 5686 5683 5682
5476 5479 5492 5487 5475 5459 5465 5478 5483 5501 5516 5522 5522 5508 5504 5511 5524 5548 5573 5597 5619 5622 5606 5616 5604 5604 5623 5650 5658 5649 5636 5622 5596 5601 5601 5593 5602 5646 5656 5673 5688 5683 5688 5685 5680
5477 5478 5493 5488 5473 5475 5482 5491 5500 5512 5517 5526 5526 5518 5522 5511 5537 5556 5587 5608 5617 5615 5610 5608 5592 5589 5619 5633 5644 5642 5645 5642 5633 5621 5611 5604 5609 5634 5638 5656 5676 5681 5679 5674 5672
5478 5484 5479 5480 5478 5475 5485 5497 5504 5524 5535 5539 5539 5532 5522 5524 5534 5562 5585 5601 5612 5620 5620 5624 5599 5600 5595 5625 5633 5641 5651 5653 5639 5610 5618 5622 5609 5602 5617 5642 5658 5665 5665 5665 5668
5469 5469 5473 5475 5484 5483 5487 5490 5499 5513 5529 5540 5544 5537 5539 5548 5559 5566 5582 5588 5608 5616 5614 5610 5597 5619 5618 5629 5641 5642 5656 5662 5649 5638 5618 5617 5609 5602 5610 5628 5642 5656 5657 5656 5656
5466 5467 5473 5477 5486 5491 5494 5498 5501 5511 5519 5536 5536 5538 5540 5547 5552 5557 5563 5563 5588 5604 5610 5603 5591 5605 5602 5619 5634 5626 5635 5642 5642 5637 5631 5624 5613 5611 5612 5625 5629 5639 5644 5642 5646
5466 5468 5470 5484 5485 5489 5491 5499 5504 5517 5535 5533 5533 5539 5544 5548 5551 5553 5554 5556 5570 5581 5597 5593 5591 5585 5585 5606 5626 5607 5611 5618 5631 5632 5635 5619 5620 5620 5615 5619 5616 5621 5630 5631 5638